Location: Tauranga
(37.6860°S, 176.1670°E)
Time: 09:21:27
(UTC+13:00)

Cosmos 2322 Rocket - Pass Details

Date: 24 January 2019
Orbit: 834 x 849 km, 71.0° (Epoch: 19 February)

Event Time Altitude Azimuth Distance (km) Brightness Sun altitude
Rises 22:56:47 0° 307° (NW) 3,392 5.4 -23.0°
Reaches altitude 10° 22:59:35 10° 295° (WNW) 2,468 4.8 -23.3°
Maximum altitude 23:04:20 27° 238° (WSW) 1,587 4.2 -23.9°
Drops below altitude 10° 23:09:08 10° 180° (S) 2,499 5.3 -24.5°
Sets 23:12:01 0° 168° (SSE) 3,443 6.0 -24.8°
